KD5HIA Weather Reports


Display with metric or nautical units.
time (UTC)temp
F
wind
direction
speed
MPH
gust
MPH
rain 1hr
in
rain 24hr
in
rain mn
in
humidity
%
barometer
mb
20260905093517 74 113 2.0 3.0 0.00 0.00 0.00 78 1014.0
20260905092517 74 135 2.0 2.0 0.00 0.00 0.00 79 1014.1
20260905091517 74 158 2.0 3.0 0.00 0.00 0.00 78 1014.3
20260905090517 74 158 1.0 2.0 0.00 0.00 0.00 78 1014.2
20260905085517 74 158 2.0 3.0 0.00 0.00 0.00 77 1014.3
20260905084517 74 158 2.0 3.0 0.00 0.00 0.00 77 1014.7
20260905083517 74 158 2.0 4.0 0.00 0.00 0.00 77 1014.6
20260905082517 74 158 3.0 5.0 0.00 0.00 0.00 77 1014.6
20260905081517 75 135 3.0 4.0 0.00 0.00 0.00 76 1014.8
20260905080517 75 0.0 0.0 0.00 0.00 0.00 76 1014.9
20260905075517 75 0.0 0.0 0.00 0.00 0.00 77 1015.0
20260905074517 74 0.0 0.0 0.00 0.00 0.00 79 1015.0
20260905073517 74 0.0 0.0 0.00 0.00 0.00 79 1015.0
20260905072517 74 0.0 0.0 0.00 0.00 0.00 79 1015.0
20260905071517 74 0.0 0.0 0.00 0.00 0.00 79 1014.9
20260905070517 74 0.0 0.0 0.00 0.00 0.00 79 1014.9
20260905065517 75 0.0 0.0 0.00 0.00 0.00 78 1015.2
20260905064517 75 0.0 0.0 0.00 0.00 0.00 78 1015.0
20260905063517 74 0.0 0.0 0.00 0.00 0.00 80 1014.9
20260905062517 73 0.0 0.0 0.00 0.00 0.00 80 1014.8
20260905061517 74 0.0 0.0 0.00 0.00 0.00 79 1014.7
20260905060515 75 0.0 0.0 0.00 0.00 0.00 77 1014.6
20260905055515 75 0.0 0.0 0.00 0.00 0.00 77 1014.6
20260905054515 74 0.0 0.0 0.00 0.00 0.00 78 1014.4
20260905053515 74 0.0 0.0 0.00 0.00 0.00 78 1014.2
20260905052515 75 135 1.0 2.0 0.00 0.00 0.00 77 1014.2
20260905051515 75 158 2.0 4.0 0.00 0.00 0.00 77 1014.2
20260905050515 75 0.0 2.0 0.00 0.00 0.00 78 1014.2
20260905045516 75 113 1.0 2.0 0.00 0.00 0.00 77 1014.2
20260905044515 74 135 1.0 3.0 0.00 0.00 0.00 78 1014.2
20260905043515 75 0.0 0.0 0.00 0.00 0.00 76 1014.1
20260905042515 75 0.0 0.0 0.00 0.00 0.00 75 1014.2
20260905041515 76 0.0 2.0 0.00 0.00 0.00 74 1014.1
20260905040515 76 113 1.0 1.0 0.00 0.00 0.00 74 1014.1
20260905035515 76 135 2.0 3.0 0.00 0.00 0.00 74 1014.0
20260905034515 76 0.0 0.0 0.00 0.00 0.00 74 1013.7
20260905033515 76 0.0 0.0 0.00 0.00 0.00 75 1014.0
20260905032515 77 0.0 0.0 0.00 0.00 0.00 74 1014.0
20260905031515 77 0.0 0.0 0.00 0.00 0.00 74 1013.8
20260905030515 78 0.0 0.0 0.00 0.00 0.00 73 1013.8
20260905025515 77 0.0 0.0 0.00 0.00 0.00 74 1013.5
20260905024515 78 0.0 0.0 0.00 0.00 0.00 74 1013.3
20260905023515 78 203 3.0 5.0 0.00 0.00 0.00 73 1012.9
20260905022515 79 158 5.0 8.0 0.00 0.00 0.00 72 1012.7
20260905021515 79 158 4.0 7.0 0.00 0.00 0.00 71 1012.5
20260905020515 79 158 5.0 9.0 0.00 0.00 0.00 70 1012.4
20260905015515 80 135 5.0 8.0 0.00 0.00 0.00 70 1012.3
20260905014519 80 135 5.0 8.0 0.00 0.00 0.00 69 1012.3
20260905013518 80 158 4.0 7.0 0.00 0.00 0.00 68 1012.3
20260905012519 80 158 3.0 5.0 0.00 0.00 0.00 67 1012.3
20260905011515 81 180 4.0 6.0 0.00 0.00 0.00 65 1012.4
20260905010515 82 180 4.0 8.0 0.00 0.00 0.00 65 1012.5
20260905005515 82 158 3.0 5.0 0.00 0.00 0.00 64 1012.6
20260905004515 82 113 2.0 3.0 0.00 0.00 0.00 65 1012.6
20260905003515 83 0.0 0.0 0.00 0.00 0.00 64 1012.7
20260905002515 83 0.0 3.0 0.00 0.00 0.00 63 1012.7
20260905001515 83 158 2.0 4.0 0.00 0.00 0.00 64 1012.6
20260905000515 83 158 5.0 9.0 0.00 0.00 0.00 63 1012.5
20260904235515 83 158 6.0 9.0 0.00 0.00 0.00 63 1012.4
20260904234515 83 180 7.0 14.0 0.00 0.00 0.00 61 1012.6
20260904233515 84 203 8.0 14.0 0.00 0.00 0.00 57 1012.7
20260904232515 85 225 4.0 7.0 0.00 0.00 0.00 60 1012.7
20260904231515 85 180 4.0 7.0 0.00 0.00 0.00 59 1012.4
20260904230515 85 158 7.0 12.0 0.00 0.00 0.00 61 1012.1
20260904225515 85 180 9.0 16.0 0.00 0.00 0.00 61 1012.3
20260904224515 85 158 11.0 17.0 0.00 0.00 0.00 60 1011.9
20260904223515 86 158 11.0 18.0 0.00 0.00 0.00 59 1011.6
20260904222515 85 135 12.0 18.0 0.00 0.00 0.00 57 1010.9
20260904221515 85 135 13.0 20.0 0.00 0.00 0.00 58 1010.9
20260904220515 86 135 7.0 11.0 0.00 0.00 0.00 54 1010.8
20260904215515 86 90 4.0 8.0 0.00 0.00 0.00 55 1011.0
20260904214515 87 90 7.0 9.0 0.00 0.00 0.00 52 1011.0
20260904213515 86 90 9.0 18.0 0.00 0.00 0.00 57 1011.1
20260904212515 86 90 7.0 13.0 0.00 0.00 0.00 52 1011.2
20260904211515 85 158 11.0 16.0 0.00 0.00 0.00 56 1011.0
20260904210515 85 135 18.0 28.0 0.00 0.00 0.00 55 1010.9
20260904205515 86 135 23.0 32.0 0.00 0.00 0.00 52 1010.8
20260904204515 92 135 22.0 33.0 0.00 0.00 0.00 47 1011.5
20260904203515 101 113 3.0 10.0 0.00 0.00 0.00 36 1011.7
20260904202516 98 180 3.0 6.0 0.00 0.00 0.00 38 1011.5
20260904201515 98 68 3.0 8.0 0.00 0.00 0.00 39 1011.8
20260904200515 98 90 1.0 6.0 0.00 0.00 0.00 38 1012.0
20260904195515 101 180 5.0 10.0 0.00 0.00 0.00 37 1012.3
20260904194515 100 203 4.0 10.0 0.00 0.00 0.00 38 1012.6
20260904193515 100 135 5.0 10.0 0.00 0.00 0.00 38 1012.8
20260904192516 100 270 3.0 8.0 0.00 0.00 0.00 37 1012.9
20260904191515 100 248 5.0 11.0 0.00 0.00 0.00 39 1013.2
20260904190515 98 135 2.0 5.0 0.00 0.00 0.00 41 1013.1
20260904185515 98 248 5.0 9.0 0.00 0.00 0.00 38 1013.4
20260904184515 98 135 5.0 10.0 0.00 0.00 0.00 41 1013.6
20260904183515 97 158 5.0 11.0 0.00 0.00 0.00 44 1013.6
20260904182515 97 203 4.0 9.0 0.00 0.00 0.00 43 1013.8
20260904181515 96 270 3.0 7.0 0.00 0.00 0.00 43 1014.0
20260904180515 97 203 4.0 6.0 0.00 0.00 0.00 44 1014.1
20260904175515 96 203 6.0 14.0 0.00 0.00 0.00 44 1014.2
20260904174515 94 203 5.0 11.0 0.00 0.00 0.00 46 1014.3
20260904173515 94 248 4.0 7.0 0.00 0.00 0.00 47 1014.4
20260904172515 94 248 6.0 12.0 0.00 0.00 0.00 47 1014.6
20260904171515 94 225 3.0 7.0 0.00 0.00 0.00 47 1014.7
20260904170516 93 180 6.0 12.0 0.00 0.00 0.00 49 1014.7
20260904165515 93 158 5.0 9.0 0.00 0.00 0.00 51 1014.8
20260904164515 92 180 4.0 7.0 0.00 0.00 0.00 51 1015.0
20260904163515 91 180 6.0 15.0 0.00 0.00 0.00 53 1014.9
20260904162515 90 158 7.0 12.0 0.00 0.00 0.00 54 1015.0
20260904161515 90 180 6.0 10.0 0.00 0.00 0.00 55 1015.1
20260904160515 89 180 4.0 7.0 0.00 0.00 0.00 55 1015.0
20260904155515 88 135 4.0 10.0 0.00 0.00 0.00 58 1014.8
20260904154515 88 135 3.0 6.0 0.00 0.00 0.00 59 1015.0
20260904153515 87 158 5.0 9.0 0.00 0.00 0.00 60 1014.8
20260904152515 86 135 3.0 7.0 0.00 0.00 0.00 63 1014.8
20260904151515 85 158 5.0 9.0 0.00 0.00 0.00 64 1014.6
20260904150515 85 203 4.0 8.0 0.00 0.00 0.00 66 1014.7
20260904145515 83 203 3.0 8.0 0.00 0.00 0.00 68 1014.6
20260904144515 82 180 5.0 8.0 0.00 0.00 0.00 69 1014.7
20260904143515 82 180 5.0 8.0 0.00 0.00 0.00 70 1014.7
20260904142515 81 180 5.0 7.0 0.00 0.00 0.00 73 1014.6
20260904141515 81 158 6.0 9.0 0.00 0.00 0.00 73 1014.6
20260904140515 80 203 6.0 9.0 0.00 0.00 0.00 75 1014.3
20260904135515 79 203 5.0 10.0 0.00 0.00 0.00 76 1014.2
20260904134515 79 203 4.0 8.0 0.00 0.00 0.00 77 1014.2
20260904133515 78 203 5.0 10.0 0.00 0.00 0.00 77 1014.1
20260904132515 78 203 4.0 6.0 0.00 0.00 0.00 78 1014.1
20260904131515 78 203 3.0 5.0 0.00 0.00 0.00 78 1013.9
20260904130518 77 203 3.0 6.0 0.00 0.00 0.00 78 1013.7
20260904125519 77 203 2.0 4.0 0.00 0.00 0.00 78 1013.6
20260904124519 76 203 2.0 5.0 0.00 0.00 0.00 79 1013.4
20260904123516 77 203 4.0 7.0 0.00 0.00 0.00 78 1013.5
20260904122515 77 203 3.0 5.0 0.00 0.00 0.00 77 1013.4
20260904121515 77 203 3.0 5.0 0.00 0.00 0.00 77 1013.4
20260904120515 77 203 3.0 5.0 0.00 0.00 0.00 76 1013.4
20260904115515 77 203 3.0 8.0 0.00 0.00 0.00 75 1013.2
20260904114515 78 203 4.0 7.0 0.00 0.00 0.00 75 1013.2
20260904113515 78 203 3.0 7.0 0.00 0.00 0.00 74 1013.3
20260904112515 78 203 6.0 9.0 0.00 0.00 0.00 73 1013.2
20260904111515 78 203 4.0 7.0 0.00 0.00 0.00 72 1013.3
20260904110515 78 180 4.0 7.0 0.00 0.00 0.00 71 1013.2
20260904105515 79 180 4.0 9.0 0.00 0.00 0.00 70 1013.3
20260904104515 79 203 4.0 8.0 0.00 0.00 0.00 68 1013.4
20260904103515 79 203 3.0 6.0 0.00 0.00 0.00 68 1013.2
20260904102515 80 203 5.0 10.0 0.00 0.00 0.00 67 1013.2
20260904101515 80 180 5.0 10.0 0.00 0.00 0.00 66 1013.0
20260904100515 80 203 6.0 11.0 0.00 0.00 0.00 65 1012.9
20260904095516 80 180 5.0 10.0 0.00 0.00 0.00 64 1012.8
20260904094515 81 180 6.0 10.0 0.00 0.00 0.00 63 1013.0